TimeCST,TemperatureF,Dew PointF,Humidity,Sea Level PressureIn,VisibilityMPH,Wind Direction,Wind SpeedMPH,Gust SpeedMPH,PrecipitationIn,Events,Conditions,WindDirDegrees,DateUTC
12:53 AM,25.0,23.0,92,30.33,10.0,Calm,Calm,-,N/A,,Clear,0,2013-03-07 06:53:00
1:53 AM,26.1,24.1,92,30.32,10.0,Calm,Calm,-,N/A,,Clear,0,2013-03-07 07:53:00
2:53 AM,28.0,23.0,81,30.33,10.0,Calm,Calm,-,N/A,,Clear,0,2013-03-07 08:53:00
3:53 AM,28.0,24.1,85,30.35,10.0,Calm,Calm,-,N/A,,Clear,0,2013-03-07 09:53:00
4:53 AM,26.1,23.0,88,30.36,10.0,Calm,Calm,-,N/A,,Clear,0,2013-03-07 10:53:00
5:53 AM,25.0,24.1,96,30.38,10.0,Calm,Calm,-,N/A,,Clear,0,2013-03-07 11:53:00
6:53 AM,27.0,26.1,96,30.39,10.0,Calm,Calm,-,N/A,,Clear,0,2013-03-07 12:53:00
7:53 AM,30.9,28.0,89,30.40,10.0,Calm,Calm,-,N/A,,Clear,0,2013-03-07 13:53:00
8:53 AM,34.0,28.0,79,30.41,10.0,East,5.8,-,N/A,,Clear,80,2013-03-07 14:53:00
9:53 AM,39.0,28.0,65,30.40,10.0,NE,5.8,-,N/A,,Clear,50,2013-03-07 15:53:00
10:53 AM,42.1,28.0,58,30.41,10.0,Variable,5.8,-,N/A,,Clear,0,2013-03-07 16:53:00
11:53 AM,45.0,28.9,53,30.39,10.0,North,8.1,-,N/A,,Clear,350,2013-03-07 17:53:00
12:53 PM,46.9,30.0,52,30.36,10.0,NNE,6.9,-,N/A,,Clear,20,2013-03-07 18:53:00
1:53 PM,48.0,28.9,48,30.34,10.0,North,9.2,-,N/A,,Clear,10,2013-03-07 19:53:00
2:53 PM,50.0,30.9,48,30.33,10.0,NE,5.8,-,N/A,,Clear,40,2013-03-07 20:53:00
3:53 PM,50.0,30.0,46,30.32,10.0,NNE,6.9,-,N/A,,Clear,30,2013-03-07 21:53:00
4:53 PM,50.0,30.0,46,30.31,10.0,North,3.5,-,N/A,,Clear,10,2013-03-07 22:53:00
5:53 PM,46.0,28.9,51,30.31,10.0,Calm,Calm,-,N/A,,Clear,0,2013-03-07 23:53:00
6:53 PM,41.0,30.0,65,30.32,10.0,Calm,Calm,-,N/A,,Clear,0,2013-03-08 00:53:00
7:53 PM,39.9,28.9,65,30.32,10.0,Calm,Calm,-,N/A,,Clear,0,2013-03-08 01:53:00
8:53 PM,34.0,28.0,79,30.32,10.0,East,3.5,-,N/A,,Clear,80,2013-03-08 02:53:00
9:53 PM,39.0,28.9,67,30.32,10.0,NE,3.5,-,N/A,,Clear,50,2013-03-08 03:53:00
10:53 PM,35.1,28.0,76,30.33,10.0,East,3.5,-,N/A,,Clear,90,2013-03-08 04:53:00
11:53 PM,36.0,28.9,76,30.33,10.0,East,5.8,-,N/A,,Clear,80,2013-03-08 05:53:00